Flag for U.S.A. Weather past 2 weeks in Augusta, Georgia, U.S.A.

Now
46 °F

Sunny.


Feels Like: 40 °F
Forecast: 40 / 53 °F
Wind: 14 mph from Northwest

Location: Daniel Field

Current Time: Jan 30, 2015 at 10:06:11 AM

Latest Report: Jan 30, 2015 at 8:53 AM


Visibility: 10 mi

Pressure: 30.17 "Hg

Humidity: 56%

Dew point: 31 °F

Location of AugustaLocation

Historic Weather in Augusta — Graph

°F

Augusta temperature yesterday

Maximum temperature yesterday: 57 °F (at 2:53 PM)
Minimum temperature yesterday: 33 °F (at 6:53 AM)
Average temperature yesterday: 47 °F

Past Weeks' High & Low Weather Summary

 TemperatureHumidityPressure
High70 °F (Jan 21, 2:53 PM)100% (Jan 15, 7:53 PM)30.37 "Hg (Jan 15, 7:53 PM)
Low32 °F (Jan 28, 5:53 AM)17% (Jan 19, 2:53 PM)29.65 "Hg (Jan 24, 3:53 AM)
Average49 °F57%30.05 "Hg
* Reported Jan 15 8:53 AM — Jan 30 8:53 AM, Augusta, Weather by CustomWeather, © 2014

Note: Actual official high and low records may vary slightly from our data, if they occured in-between our weather recording intervals... More about our weather records

Advertising

Augusta weather history for previous 24 hours

 ConditionsComfort  
Time TempWeatherWind HumidityBarometerVisibility
8:53 AM
Jan 30
46 °FSunny.14 mph56%30.17 "Hg10 mi
7:53 AM46 °FSunny.13 mph58%30.15 "Hg10 mi
6:53 AM48 °FClear.15 mph63%30.12 "Hg10 mi
5:53 AM50 °FClear.8 mph63%30.07 "Hg10 mi
4:53 AM53 °FClear.8 mph59%30.05 "Hg10 mi
3:53 AM53 °FPassing clouds.6 mph64%30.03 "Hg10 mi
2:53 AM53 °FPassing clouds.7 mph56%30.04 "Hg10 mi
1:53 AM51 °FMostly cloudy.6 mph48%30.06 "Hg10 mi
12:53 AM51 °FPassing clouds.6 mph46%30.07 "Hg10 mi
11:53 PM
Jan 29
51 °FPassing clouds.7 mph44%30.10 "Hg10 mi
10:53 PM52 °FOvercast.6 mph43%30.13 "Hg10 mi
9:53 PM52 °FMostly cloudy.6 mph43%30.14 "Hg10 mi
8:53 PM53 °FPassing clouds.5 mph38%30.15 "Hg10 mi
7:53 PM54 °FPassing clouds.3 mph35%30.15 "Hg10 mi
6:53 PM54 °FPassing clouds.7 mph35%30.14 "Hg10 mi
5:53 PM56 °FScattered clouds.9 mph32%30.14 "Hg10 mi
4:53 PM57 °FSunny.12 mph28%30.16 "Hg10 mi
3:53 PM57 °FSunny.12 mph27%30.18 "Hg10 mi
2:53 PM57 °FSunny.13 mph27%30.20 "Hg10 mi
1:53 PM55 °FSunny.9 mph29%30.24 "Hg10 mi
12:53 PM53 °FSunny.8 mph31%30.27 "Hg10 mi
11:53 AM50 °FSunny.9 mph35%30.32 "Hg10 mi
10:53 AM48 °FSunny.8 mph41%30.35 "Hg10 mi
Weather by CustomWeather, © 2014

See weather overviewHow to use our weather pages